Probability
0 0 0 0 0 0 0 0 0 0 0 0 0 0 0 0 0 0 0 0 0 0 0 0 0 0 0 0 0 0 0 0 0 0 0 0 0 0 0 0 0 0 0 0
0 0 0 0 0 0 0 0 0 0 0 0 0 0 0 0 0 0 0 0 0 0 0 0 0 0 0 0 0 0 0 0 0 0 0 0 0 0 0 0 0 0 0 0
0 0 0 0 0 0 0 0 0 0 0 0 0 0 0 0 0 0 0 0 0 0 0 0 0 0 0 0 0 0 0 0 0 0 0 0 0 0 0 0 0 0 0 0
0 0 0 0 0 0 0 0 0 0 0 0 0 0 0 0 0 0 0 0 0 0 0 0 0 0 0 0 0 0 0 0 0 0 0 0 0 0 0 0 0 0 0 0
0 0 0 0 0 0 0 0 0 0 0 0 0 0 0 0 0 0 0 0 0 0 0 0 0 0 0 0 0 0 0 0 0 0 0 0 0 0 0 0 0 0 0 0
0 0 0 0 0 0 0 0 0 0 0 0 0 0 0 0 0 0 0 0 0 0 0 0 0 0 0 0 0 0 0 0 0 0 0 0 0 0 0 0 0 0 0 0
0 0 0 0 0 0 0 0 0 0 0 0 0 0 0 0 0 0 0 0 0 0 0 0 0 0 0 0 0 0 0 0 0 0 0 0 0 0 0 0 0 0 0 0
0 0 0 0 0 0 0 0 0 0 0 0 0 0 0 0 0 0 0 0 0 0 0 0 0 0 0 0 0 0 0 0 0 0 0 0 0 0 0 0 0 0 0 0
0 0 0 0 0 0 0 0 0 0 0 0 0 0 0 0 0 0 0 0 0 0 0 0 0 0 0 0 0 0 0 0 0 0 0 0 0 0 0 0 0 0 0 0
0 0 0 0 0 0 0 0 0 0 0 0 0 0 0 0 0 0 0 0 0 0 0 0 0 0 0 0 0 0 0 0 0 0 0 0 0 0 0 0 0 0 0 0
0 0 0 0 0 0 0 0 0 0 0 0 0 0 0 0 0 0 0 0 0 0 0 0 0 0 0 0 0 0 0 0 0 0 0 0 0 0 0 0 0 0 0 0
0 0 0 0 0 0 0 0 0 0 0 0 0 0 0 0 0 0 0 0 0 0 0 0 0 0 0 0 0 0 0 0 0 0 0 0 0 0 0 0 0 0 0 0
0 0 0 0 0 0 0 0 0 0 0 0 0 0 0 0 0 0 0 0 0 0 0 0 0 0 0 0 0 0 0 0 0 0 0 0 0 0 0 0 0 0 0 0
0 0 0 0 0 0 0 0 0 0 0 0 0 0 0 0 0 0 0 0 0 0 0 0 0 0 0 0 0 0 0 0 0 0 0 0 0 0 0 0 0 0 0 0
0 0 0 0 0 0 0 0 0 0 0 0 0 0 0 0 0 0 0 0 0 0 0 0 0 0 0 0 0 0 0 0 0 0 0 0 0 0 0 0 0 0 0 0
0 0 0 0 0 0 0 0 0 0 0 0 0 0 0 0 0 0 0 0 0 0 0 0 0 0 0 0 0 0 0 0 0 0 0 0 0 0 0 0 0 0 0 0
0 0 0 0 0 0 0 0 0 0 0 0 0 0 0 0 0 0 0 0 0 0 0 0 0 0 0 0 0 0 0 0 0 0 0 0 0 0 0 0 0 0 0 0
0 0 0 0 0 0 0 0 0 0 0 0 0 0 0 0 0 0 0 0 0 0 0 0 0 0 0 0 0 0 0 0 0 0 0 0 0 0 0 0 0 0 0 0
0 0 0 0 0 0 0 0 0 0 0 0 0 0 0 0 0 0 0 0 0 0 0 0 0 0 0 0 0 0 0 0 0 0 0 0 0 0 0 0 0 0 0 0
0 0 0 0 0 0 0 0 0 0 0 0 0 0 0 0 0 0 0 0 0 0 0 0 0 0 0 0 0 0 0 0 0 0 0 0 0 0 0 0 0 0 0 0
0 0 0 0 0 0 0 0 0 0 0 0 0 0 0 0 0 0 0 0 0 0 0 0 0 0 0 0 0 0 0 0 0 0 0 0 0 0 0 0 0 0 0 0
0 0 0 0 0 0 0 0 0 0 0 0 0 0 0 0 0 0 0 0 0 0 0 0 0 0 0 0 0 0 0 0 0 0 0 0 0 0 0 0 0 0 0 0
0 0 0 0 0 0 0 0 0 0 0 0 0 0 0 0 0 0 0 0 0 0 0 0 0 0 0 0 0 0 0 0 0 0 0 0 0 0 0 0 0 0 0 0
0 0 0 0 0 0 0 0 0 0 0 0 0 0 0 0 0 0 0 0 0 0 0 0 0 0 0 0 0 0 0 0 0 0 0 0 0 0 0 0 0 0 0 0
0 0 0 0 0 0 0 0 0 0 0 0 0 0 0 0 0 0 0 0 0 0 0 0 0 0 0 0 0 0 0 0 0 0 0 0 0 0 0 0 0 0 0 0
0 0 0 0 0 0 0 0 0 0 0 0 0 0 0 0 0 0 0 0 0 0 0 0 0 0 0 0 0 0 0 0 0 0 0 0 0 0 0 0 0 0 0 0
Wind_Speed
1 3 3 7 8 5 3 4 6 6 4 7 11 17 16 8 11 13 12 13 16 20 15 11 13 13 12 13 13 14 12 10 7 4 3 3 3 3 3 3 5 5 5 5
3 4 6 4 4 4 3 3 4 3 3 6 7 14 15 9 12 14 16 17 19 16 12 13 13 14 16 17 16 15 14 12 11 6 5 4 3 3 3 3 4 5 5 5
5 5 2 3 3 3 3 3 4 3 2 3 5 12 9 5 6 8 10 13 13 17 17 15 16 17 17 19 19 17 15 14 11 8 4 3 2 1 2 3 3 4 5 5
4 3 2 3 3 4 4 2 1 1 2 5 1 7 11 5 5 8 13 13 15 16 15 15 16 17 20 20 16 15 15 13 12 11 8 7 6 5 5 4 3 4 5 5
4 3 4 5 5 5 4 1 0 0 1 4 3 4 13 3 7 12 13 15 17 16 15 16 18 20 19 16 15 14 14 14 12 11 11 8 7 5 4 3 5 5 4 5
5 3 4 5 1 1 3 3 3 4 3 5 6 7 12 7 10 9 9 11 15 14 14 14 13 12 13 12 13 13 15 14 13 13 11 10 10 8 6 6 5 4 3 4
4 3 2 2 2 1 3 4 3 4 2 8 3 5 15 11 10 10 11 11 12 11 11 12 12 13 14 16 16 15 16 15 14 13 12 11 11 9 9 8 6 5 4 4
3 7 4 3 6 5 4 6 6 4 5 7 4 9 14 9 8 9 9 8 8 9 10 12 14 15 15 17 17 17 18 15 15 14 13 10 10 7 7 8 6 6 5 5
5 6 1 2 2 5 4 5 6 5 3 5 9 10 14 6 6 6 7 7 9 10 10 11 11 12 14 17 19 19 18 15 15 14 12 10 10 9 8 8 7 5 5 5
5 5 4 1 1 2 3 4 5 4 4 7 9 8 9 8 9 9 9 10 12 10 9 10 10 12 13 14 14 14 16 16 14 13 12 11 10 9 8 7 7 7 7 7
4 5 4 1 7 8 5 4 5 4 4 5 7 12 9 9 9 11 14 13 13 12 12 12 11 11 10 10 12 14 14 13 13 13 12 10 10 9 8 7 8 7 7 7
4 4 5 8 5 4 7 8 8 6 7 6 5 14 9 9 10 9 12 11 10 10 10 9 9 8 10 12 13 15 15 15 14 13 12 11 9 9 8 8 8 7 7 7
5 4 3 7 2 2 4 5 6 4 2 5 7 16 6 6 7 7 9 10 9 9 9 7 7 10 12 14 14 15 15 15 13 12 12 11 10 10 10 9 8 7 7 7
5 5 8 10 8 5 6 5 7 7 6 8 15 21 19 17 12 10 10 10 9 9 9 8 9 10 12 13 14 15 15 14 13 13 13 13 13 12 10 8 8 7 7 7
4 6 7 10 10 6 8 11 10 14 15 15 19 21 27 23 12 10 10 10 9 10 10 10 11 11 11 12 13 14 14 14 14 14 14 14 11 10 9 8 8 7 7 7
4 5 3 7 8 9 10 16 18 18 16 19 23 26 26 19 9 9 10 10 10 11 11 11 11 11 13 14 15 14 15 15 14 15 15 12 10 10 10 9 8 7 7 6
6 6 4 7 5 5 10 15 17 11 10 11 18 22 17 12 11 10 10 9 10 11 11 11 11 12 14 15 15 16 16 14 15 15 13 12 12 12 11 10 9 9 7 6
10 7 4 4 1 12 13 5 8 11 13 14 16 18 14 11 8 8 9 10 12 11 11 10 9 10 11 11 12 12 11 14 15 15 14 13 13 12 10 9 10 9 7 6
6 8 5 3 6 13 10 9 7 8 12 11 16 20 15 6 6 9 8 7 10 10 10 9 8 8 7 9 10 11 13 14 15 16 15 15 14 13 11 11 11 9 7 7
3 3 4 5 6 12 9 4 2 1 10 8 6 10 6 2 3 7 6 4 6 8 8 8 7 6 7 8 9 12 14 15 18 18 16 14 14 14 14 13 11 8 7 7
4 4 6 8 10 14 10 3 4 5 10 4 2 3 2 5 8 8 8 8 8 9 10 9 8 8 9 7 10 13 15 19 17 13 12 13 14 14 13 10 9 8 7 6
11 9 9 7 8 15 7 6 9 9 4 5 5 5 5 8 10 11 11 11 10 11 11 9 8 10 8 7 11 14 18 15 10 11 13 13 13 12 11 10 9 8 8 7
9 11 8 13 13 6 5 9 8 4 7 8 7 8 8 9 11 12 11 11 10 11 10 9 8 10 8 8 12 17 15 9 11 12 13 12 12 12 11 11 10 8 8 6
7 6 6 9 11 10 9 8 10 10 11 10 10 11 9 11 13 14 12 10 10 10 10 8 8 10 11 9 12 16 9 10 13 14 13 12 13 12 11 10 9 9 8 7
8 6 9 16 12 11 11 10 9 8 9 11 12 11 10 11 12 11 11 10 10 9 9 8 8 11 13 10 11 12 9 12 14 14 13 13 13 12 12 11 10 10 9 9
11 13 18 25 16 14 13 10 13 14 13 12 12 10 9 8 9 10 9 9 9 10 9 9 10 11 13 10 11 10 10 13 14 13 13 11 10 10 10 9 9 15 13 16
Wind_Direction
106 89 212 218 204 214 223 234 259 260 189 186 234 259 269 217 215 229 225 220 223 228 224 208 202 193 186 185 185 184 182 180 167 159 169 185 213 221 239 239 232 225 227 235
38 254 231 197 197 224 237 269 274 281 191 205 265 273 268 221 210 219 221 222 225 230 223 212 201 194 193 192 191 188 187 183 180 175 168 172 177 203 219 233 230 226 230 238
224 241 189 187 218 240 262 242 254 276 339 264 308 299 284 252 220 231 227 225 226 225 223 214 206 201 199 198 195 193 190 185 183 173 153 153 150 225 234 228 229 235 239 246
246 230 197 207 234 196 255 213 213 290 339 293 229 294 289 267 260 245 237 230 232 229 224 216 209 204 204 203 195 192 186 184 181 172 171 172 185 203 215 212 222 242 247 249
262 206 204 222 232 194 216 158 152 121 215 301 245 230 279 281 263 256 242 232 233 229 221 218 212 209 206 198 191 189 183 184 180 179 180 180 196 206 213 220 236 244 248 248
244 217 207 212 172 137 120 65 51 49 66 284 226 189 273 237 220 241 242 231 230 228 222 222 215 204 199 189 187 184 184 186 183 183 183 187 195 201 210 222 232 239 241 248
294 263 229 153 143 64 103 85 354 328 327 256 226 211 251 245 224 221 226 230 228 222 216 215 206 200 195 188 189 188 188 189 186 187 190 194 196 197 207 214 222 228 234 238
285 287 228 198 188 183 184 154 177 235 251 285 283 238 254 256 249 236 238 241 236 226 216 215 210 202 197 192 190 189 192 191 188 191 196 196 194 196 206 210 209 217 224 234
216 264 221 185 192 178 183 203 181 162 261 271 268 277 295 268 265 239 235 241 242 235 224 220 211 201 196 193 194 193 192 191 192 194 193 195 195 197 204 207 210 218 227 238
188 256 269 195 53 253 205 155 116 154 230 264 280 268 254 273 256 248 242 239 245 244 239 229 215 206 201 198 194 192 193 194 191 191 194 198 198 200 201 202 212 220 230 238
180 219 276 268 213 205 168 190 186 183 191 200 264 265 232 238 244 237 236 235 238 238 234 229 220 209 197 188 189 193 195 194 193 194 195 194 193 197 198 205 215 221 229 233
177 153 255 251 237 194 186 197 166 183 236 211 235 266 260 251 261 246 245 244 243 241 238 230 216 196 192 195 196 197 198 199 198 194 192 196 192 192 199 210 216 220 228 231
149 142 305 322 309 218 227 218 195 186 188 214 230 267 276 293 289 265 256 262 261 256 250 235 211 203 205 204 202 202 202 201 196 190 191 194 195 197 205 211 215 218 224 232
128 179 199 226 236 200 220 225 200 186 215 239 235 259 276 277 275 275 268 262 262 257 249 236 225 218 214 209 206 205 205 199 192 191 193 198 201 202 205 207 210 215 221 232
144 224 239 254 262 246 241 247 229 217 223 236 254 256 267 272 269 257 259 266 267 261 251 239 232 227 218 214 211 208 205 198 193 193 198 203 200 196 197 203 208 214 222 236
171 221 259 272 261 248 253 253 248 241 236 241 258 267 266 276 276 265 264 265 265 261 255 248 238 230 223 218 214 209 206 199 193 197 201 197 189 192 198 203 207 215 225 235
188 190 216 264 281 317 264 238 235 227 217 214 242 255 270 278 270 262 264 260 256 260 262 256 244 234 229 221 212 210 205 194 195 200 198 192 190 196 201 203 208 218 225 233
173 173 199 259 299 240 245 233 223 235 247 229 245 260 268 264 277 269 254 253 263 263 264 262 253 244 235 223 212 207 195 194 198 201 197 192 190 196 196 199 212 218 220 229
175 168 191 204 243 268 286 272 217 217 269 243 242 261 273 298 316 293 265 235 246 259 264 265 261 252 241 221 204 192 197 198 201 203 200 194 191 191 192 203 214 215 216 228
96 138 180 197 226 250 253 251 170 133 285 280 246 264 293 67 327 284 302 307 284 283 282 281 279 264 247 226 190 193 203 203 209 207 201 192 189 190 196 204 208 207 213 227
166 193 204 219 237 259 259 243 141 213 254 305 337 305 288 214 233 263 300 302 293 290 287 283 275 262 250 216 190 205 210 215 213 200 190 187 189 193 196 197 200 202 211 221
188 188 205 196 221 254 236 159 198 231 301 317 318 310 289 268 273 281 285 285 288 289 288 284 274 267 255 210 200 215 223 220 194 184 186 188 188 189 191 192 197 200 205 218
209 204 206 205 226 254 193 212 245 286 287 287 290 293 292 285 283 284 283 283 286 284 283 279 268 271 262 220 209 226 230 198 180 183 189 187 185 189 187 189 194 196 202 212
239 224 235 253 255 263 266 255 259 259 260 272 280 285 285 280 282 286 287 287 286 284 282 280 276 272 270 241 223 232 222 182 182 188 189 186 185 188 190 191 194 196 198 204
234 241 255 265 269 277 260 257 266 279 288 291 289 287 283 279 280 281 286 287 286 286 286 283 274 272 272 259 237 231 205 183 189 191 189 188 189 189 191 196 199 199 203 198
231 242 256 267 270 270 280 281 286 287 288 290 294 297 298 291 284 288 289 288 288 290 290 288 281 275 276 269 252 229 200 191 191 193 192 190 188 187 189 192 201 215 211 219